King Cove AP, King Cove, AK, AK

6:24 PM AKST on December 17, 2017 (GMT -0900)
King Cove AP, King Cove, AK

Weather History for PAVC - December, 2013

Change the Weather History Date:

Monday, December 2, 2013

  Actual Average (PACD) Record (PACD)
Temperature  
Mean Temperature 40 °F 33 °F  
Max Temperature 42 °F 37 °F 46 °F (1947)
Min Temperature 37 °F 28 °F 11 °F (1971)
Degree Days  
Heating Degree Days 26 32  
Month to date heating degree days 64  
Since 1 July heating degree days 3084  
Cooling Degree Days 0 0  
Month to date cooling degree days 0  
Year to date cooling degree days 0  
Moisture  
Dew Point 35 °F    
Average Humidity 82    
Maximum Humidity 93    
Minimum Humidity 70    
Precipitation  
Precipitation 0.00 in 0.16 in 3.63 in (2000)
Month to date precipitation 0.33  
Year to date precipitation 37.54  
Snow  
Snow 0.00 in 0.40 in 3.00 in (1988)
Month to date snowfall 0.8  
Since 1 July snowfall 13.4  
Since 1 September snowfall 13.4  
Snow Depth -    
Sea Level Pressure  
Sea Level Pressure 30.32 in    
Wind  
Wind Speed 22 mph (East)    
Max Wind Speed 32 mph    
Max Gust Speed 46 mph    
Visibility 7 miles    
Events      
T = Trace of Precipitation, MM = Missing Value Source: NWS Daily Summary

Daily Weather History Graph

Daily Weather History Graph

Search for Another Location

Airport or City:

Trip Planner

Search our weather history database for the weather conditions in past years. The results will help you decide how hot, cold, wet, or windy it might be!

Date:

Astronomy

Dec. 02, 2013 Rise Set
Actual Time 9:53 AM AKST 5:23 PM AKST
Civil Twilight 9:08 AM AKST 6:08 PM AKST
Nautical Twilight 8:22 AM AKST 6:54 PM AKST
Astronomical Twilight 7:38 AM AKST 7:38 PM AKST
Moon 9:25 AM AKST (12/2) 5:43 PM AKST (12/2)
Length of Visible Light 8h 59m
Length of Day
7h 30m
Waning Crescent, 0% of the Moon is Illuminated
Dec 2
Waning Crescent
Dec 2
New
Dec 9
First Quarter
Dec 17
Full
Dec 25
Last Quarter

Hourly Weather History & Observations

Time (AKST) Temp. Windchill Dew Point Humidity Pressure Visibility Wind Dir Wind Speed Gust Speed Precip Events Conditions
12:56 AM 38.8 °F 29.1 °F 32.0 °F 76% 30.33 in 10.0 mi East 19.6 mph - N/A   Overcast
1:56 AM 38.8 °F 28.8 °F 32.0 °F 76% 30.33 in 10.0 mi East 20.7 mph - N/A   Overcast
3:18 AM 39.2 °F 29.0 °F 32.0 °F 75% 30.32 in 10.0 mi East 21.9 mph 28.8 mph N/A   Overcast
3:56 AM 39.9 °F 30.2 °F 32.0 °F 73% 30.35 in 10.0 mi East 20.7 mph - N/A   Overcast
4:56 AM 39.9 °F 30.8 °F 32.0 °F 73% 30.34 in 10.0 mi East 18.4 mph - N/A   Overcast
5:39 AM 41.0 °F 31.9 °F 32.0 °F 70% 30.33 in 10.0 mi East 19.6 mph - N/A   Overcast
5:56 AM 41.0 °F 32.8 °F 32.0 °F 70% 30.34 in 10.0 mi East 16.1 mph - N/A   Overcast
6:56 AM 41.0 °F 32.2 °F 32.0 °F 70% 30.33 in 10.0 mi East 18.4 mph 26.5 mph N/A   Overcast
7:56 AM 41.0 °F 32.2 °F 32.0 °F 70% 30.35 in 10.0 mi East 18.4 mph - N/A   Overcast
8:56 AM 41.0 °F 30.7 °F 32.0 °F 70% 30.33 in 10.0 mi East 25.3 mph 31.1 mph N/A   Overcast
9:43 AM 41.0 °F 30.2 °F 33.8 °F 76% 30.34 in 10.0 mi East 27.6 mph 32.2 mph N/A   Overcast
9:56 AM 41.0 °F 30.9 °F 32.9 °F 73% 30.36 in 10.0 mi ENE 24.2 mph 29.9 mph N/A   Overcast
10:56 AM 41.0 °F 31.4 °F 32.9 °F 73% 30.37 in 10.0 mi East 21.9 mph 31.1 mph N/A   Overcast
11:56 AM 42.8 °F 32.7 °F 33.8 °F 70% 30.35 in 10.0 mi ENE 27.6 mph 34.5 mph N/A   Overcast
12:56 PM 41.9 °F 31.1 °F 32.9 °F 70% 30.36 in 8.0 mi East 29.9 mph 35.7 mph N/A   Overcast
1:56 PM 41.0 °F 31.6 °F 32.9 °F 73% 30.35 in 10.0 mi East 20.7 mph 27.6 mph N/A   Overcast
2:56 PM 39.2 °F 29.6 °F 35.6 °F 87% 30.34 in 3.0 mi East 19.6 mph 31.1 mph N/A   Overcast
3:29 PM 37.4 °F 27.2 °F 35.6 °F 93% 30.33 in 2.0 mi East 19.6 mph 27.6 mph N/A   Overcast
3:56 PM 38.8 °F 28.3 °F 34.9 °F 86% 30.33 in 3.0 mi ENE 23.0 mph 28.8 mph N/A   Overcast
4:38 PM 37.4 °F 26.6 °F 35.6 °F 93% 30.32 in 2.5 mi ENE 21.9 mph 31.1 mph N/A   Overcast
4:56 PM 37.9 °F 26.3 °F 36.0 °F 93% 30.31 in 2.0 mi ENE 26.5 mph 34.5 mph N/A   Overcast
5:37 PM 39.2 °F 28.0 °F 35.6 °F 87% 30.31 in 3.0 mi East 26.5 mph 33.4 mph N/A   Overcast
5:56 PM 37.4 °F 25.6 °F 35.6 °F 93% 30.31 in 2.0 mi East 26.5 mph 34.5 mph N/A   Overcast
6:56 PM 37.9 °F 25.7 °F 34.9 °F 89% 30.31 in 3.0 mi East 29.9 mph 36.8 mph N/A   Overcast
7:56 PM 38.8 °F 26.9 °F 36.0 °F 89% 30.29 in 2.5 mi ENE 29.9 mph 40.3 mph N/A   Overcast
8:56 PM 39.2 °F 28.3 °F 37.4 °F 93% 30.28 in 2.5 mi East 25.3 mph 34.5 mph N/A   Overcast
9:15 PM 39.2 °F 27.8 °F 37.4 °F 93% 30.27 in 3.0 mi ENE 27.6 mph 34.5 mph N/A   Overcast
9:44 PM 39.2 °F 29.0 °F 37.4 °F 93% 30.27 in 4.0 mi East 21.9 mph 33.4 mph N/A   Overcast
9:56 PM 39.9 °F 29.5 °F 37.9 °F 93% 30.28 in 5.0 mi East 24.2 mph 33.4 mph N/A   Overcast
10:20 PM 41.0 °F 30.7 °F 37.4 °F 87% 30.27 in 6.0 mi East 25.3 mph 36.8 mph N/A   Overcast
10:56 PM 41.9 °F 32.6 °F 38.8 °F 89% 30.27 in 7.0 mi East 21.9 mph 35.7 mph N/A   Overcast
11:14 PM 42.8 °F 32.7 °F 39.2 °F 87% 30.26 in 8.0 mi ESE 27.6 mph 33.4 mph N/A   Overcast
11:56 PM 42.8 °F 31.9 °F 39.2 °F 87% 30.25 in 2.5 mi ESE 32.2 mph 46.0 mph N/A   Overcast